RH
32 31 26 22 17 17 29 42 32 50 41 36 51 43 38 35 35 40 37 31 25 24 24 23 29 25 25 33 26 19 29 30 55 37 49 47 47 44 46 63 44 85 80 63
33 32 30 26 22 18 24 32 40 44 42 43 39 41 34 40 39 40 34 33 30 28 26 26 29 35 38 34 29 30 33 28 53 43 57 56 62 53 48 61 71 84 70 65
42 38 35 31 27 23 18 28 42 32 34 33 35 35 33 33 39 36 34 32 32 28 28 29 36 41 44 39 36 44 31 37 28 31 24 57 56 61 56 43 76 66 72 54
53 48 41 38 32 27 22 25 40 39 41 35 40 38 36 36 37 38 36 38 31 30 32 33 32 41 50 48 51 45 41 33 45 42 44 56 49 47 65 61 48 52 46 62
60 55 49 43 38 34 25 31 34 38 45 47 40 43 45 36 35 37 35 33 38 37 30 28 35 44 50 44 59 43 60 43 47 54 49 53 59 57 53 58 50 48 43 49
60 54 47 42 39 40 39 39 41 50 38 54 41 38 35 39 36 36 32 34 42 44 40 30 29 30 35 40 59 58 62 55 62 65 61 59 68 60 51 54 57 51 57 47
67 63 57 51 45 45 53 55 52 49 44 59 49 40 41 40 41 31 40 39 40 36 40 41 43 47 49 51 55 45 70 57 63 82 56 75 37 39 46 52 54 55 54 57
78 80 79 70 62 58 60 65 62 58 60 50 48 49 48 42 42 46 43 41 40 40 41 53 52 54 48 62 67 68 56 62 66 83 89 63 45 47 58 56 63 62 65 66
74 64 60 68 80 84 83 80 76 72 68 65 46 47 50 56 58 56 50 51 50 47 64 61 66 62 50 50 76 79 68 60 62 89 89 84 51 46 46 48 71 73 77 83
50 44 43 42 44 52 66 94 98 92 84 66 65 68 62 55 61 66 66 62 60 53 79 79 85 77 51 61 72 90 91 88 80 73 82 74 54 56 49 65 70 87 86 90
48 44 33 29 26 26 33 71 100 100 97 82 76 78 77 72 74 78 66 68 73 80 82 84 86 91 75 67 64 82 82 90 96 82 91 87 92 65 57 85 93 95 97 98
37 35 33 28 26 22 18 25 55 72 87 98 97 92 92 90 87 83 76 70 72 68 78 83 84 90 91 80 80 66 68 62 73 70 73 97 98 98 98 99 98 100 97 97
57 45 34 30 27 25 22 18 17 19 55 47 57 58 72 82 88 90 99 92 74 75 77 88 92 97 91 95 94 71 58 54 71 85 94 97 99 100 100 100 99 98 87 68
84 60 43 37 33 33 28 24 22 34 73 99 70 83 91 88 98 100 100 100 99 99 100 100 100 100 99 99 87 81 70 71 98 100 99 99 99 99 96 93 89 65 54 49
91 97 97 96 89 64 35 34 49 98 79 96 80 48 50 64 60 66 97 100 100 100 99 100 100 99 100 98 99 98 83 81 93 85 99 97 100 96 91 67 50 51 52 53
80 77 72 66 71 68 51 47 98 100 98 97 97 77 79 77 86 93 100 100 100 99 100 97 100 100 99 99 97 99 99 99 100 98 98 97 97 89 67 56 59 62 64 65
76 74 75 73 61 61 64 48 59 74 62 78 92 84 74 84 100 100 100 100 99 100 100 99 99 99 97 100 97 98 98 97 98 98 96 96 89 74 64 68 66 61 52 46
63 73 77 56 43 55 46 68 81 92 82 88 99 85 74 88 99 98 99 99 98 99 99 99 96 99 97 96 98 98 98 97 93 82 69 66 66 66 65 57 46 37 32 33
64 53 43 45 78 96 100 100 94 94 90 97 92 92 94 83 79 87 88 87 92 88 91 94 95 93 95 97 98 97 97 95 72 56 56 45 43 41 37 35 37 42 42 43
59 45 52 91 81 82 74 95 95 83 82 78 98 94 96 91 85 90 89 92 98 98 97 87 96 95 97 96 92 80 67 51 46 43 43 41 40 44 44 49 50 53 54 55
70 58 59 60 61 78 81 87 96 97 99 97 87 85 98 98 98 100 98 97 96 96 94 94 96 95 96 96 90 63 50 48 47 50 53 55 58 58 57 56 57 58 61 66
81 72 78 81 80 81 86 100 87 95 96 94 87 85 95 96 87 92 95 96 92 96 93 94 95 95 75 67 68 66 64 55 48 50 55 58 60 63 66 68 68 73 76 75
72 82 69 65 76 80 90 100 95 96 93 77 74 79 89 80 74 84 90 93 100 84 94 98 97 82 73 67 62 56 53 52 55 58 61 61 63 65 70 74 73 74 75 75
73 76 78 91 99 97 95 95 96 99 98 95 88 91 81 80 86 98 90 98 92 96 95 96 95 65 63 59 62 66 69 74 77 79 81 80 71 70 72 73 78 83 84 85
78 79 83 98 94 94 99 93 89 95 89 80 77 81 77 95 91 95 88 85 98 96 96 91 67 66 71 73 78 82 82 81 84 84 80 77 76 76 77 76 79 82 87 86
93 93 90 93 93 87 76 81 93 90 94 88 75 94 95 100 100 100 100 95 99 96 88 70 74 76 79 83 76 75 79 82 81 80 82 81 80 82 83 81 80 84 88 91
84 96 95 98 96 96 94 87 87 81 81 100 99 99 91 94 100 100 97 97 96 79 76 78 74 72 73 71 72 80 81 80 82 85 84 84 83 85 84 84 83 86 85 86
Wind_Speed
11 13 14 16 16 15 4 2 1 2 4 2 3 2 4 4 4 1 2 0 2 2 1 2 2 1 3 1 3 3 1 4 3 3 2 1 1 3 5 4 4 1 3 7
11 12 13 14 14 13 8 3 1 1 1 2 0 2 1 1 2 3 5 5 2 2 4 2 1 1 3 1 1 4 4 1 2 5 5 4 5 5 3 4 3 7 5 6
13 13 14 14 14 11 8 2 1 2 2 2 6 4 3 3 3 2 2 1 2 3 2 1 4 3 3 4 4 3 4 4 5 6 4 5 4 5 6 5 3 5 7 5
15 15 14 14 14 13 7 1 3 3 2 1 3 3 6 4 5 4 6 1 4 4 2 2 1 2 2 3 2 1 3 3 4 5 4 4 5 7 10 11 7 10 7 10
17 17 19 19 16 13 6 4 2 2 2 2 4 4 7 8 4 7 4 4 6 7 5 7 8 6 4 6 3 2 4 3 2 5 6 6 6 14 13 16 14 13 14 13
23 24 24 22 19 16 6 6 4 2 2 2 3 4 5 6 5 6 4 6 5 3 7 8 4 8 4 6 9 8 6 5 3 5 0 4 5 15 13 3 5 8 12 8
28 27 24 20 18 15 10 7 7 3 4 2 4 2 4 4 4 1 2 7 5 3 4 1 2 4 7 8 9 10 6 5 3 3 3 3 4 2 5 6 2 6 5 5
21 16 15 14 12 11 10 9 5 3 3 4 4 4 4 3 4 3 4 7 5 6 3 3 3 3 3 2 2 5 4 4 2 3 4 6 6 1 5 6 3 2 6 4
13 13 14 13 11 9 8 10 9 5 1 5 8 2 4 3 3 3 4 5 7 8 3 3 6 5 5 4 2 5 3 1 4 3 4 6 3 1 2 3 3 3 8 6
15 15 15 14 13 11 9 7 8 6 5 6 4 3 3 3 2 2 2 4 5 9 3 4 5 6 5 5 7 6 4 2 11 11 6 6 4 3 2 3 2 7 7 5
15 16 17 16 15 13 10 7 9 8 8 14 13 11 7 5 4 3 4 2 2 2 3 4 4 5 6 1 5 7 8 8 4 4 4 8 7 2 3 4 8 7 5 3
16 15 14 15 15 14 11 8 9 12 10 7 6 12 14 16 13 4 6 2 3 6 2 2 0 2 1 3 3 0 3 5 5 8 4 3 8 8 7 6 6 5 5 2
14 16 16 15 14 15 14 13 13 11 7 14 16 17 19 20 20 19 7 8 9 5 4 3 1 4 2 4 4 3 2 2 1 1 2 5 6 5 3 4 5 5 6 8
13 13 13 15 15 14 14 15 13 9 5 4 5 4 8 11 12 12 16 21 10 8 7 4 3 2 7 2 1 2 0 1 3 2 2 4 6 6 5 5 6 8 7 6
17 14 12 11 12 14 15 15 9 5 5 4 10 19 10 7 10 11 15 11 14 8 5 3 3 3 4 2 2 3 1 0 3 0 4 4 7 9 10 9 6 4 1 3
16 17 19 16 14 13 13 3 5 9 4 5 3 4 4 7 7 5 4 10 8 5 3 4 3 2 2 1 1 5 6 9 5 4 10 13 13 12 7 3 1 2 5 8
17 17 16 16 16 14 8 5 8 14 11 3 5 5 3 9 3 1 2 4 3 4 1 1 2 0 2 1 2 6 13 16 14 14 11 10 8 4 1 3 6 8 10 12
18 17 18 18 15 14 9 7 6 4 3 2 2 3 5 10 5 3 4 2 2 1 2 2 2 4 7 4 8 12 12 16 14 9 6 5 4 5 5 8 12 15 17 20
17 17 16 8 1 1 3 7 7 4 4 2 3 1 2 7 7 4 3 4 2 3 2 2 2 3 5 7 11 16 17 12 12 11 10 10 10 10 12 14 16 19 22 24
14 11 4 2 3 7 8 1 2 2 5 4 2 3 1 6 5 3 2 3 2 1 2 6 3 3 11 16 16 17 16 14 14 17 18 18 18 17 18 19 20 22 24 28
7 6 3 7 10 3 1 0 1 2 3 1 2 4 2 6 1 2 4 1 1 2 2 2 3 2 3 10 11 11 12 14 15 13 12 12 14 17 20 23 24 27 29 29
9 9 7 5 3 2 4 2 4 3 2 5 6 6 4 4 5 3 6 2 3 1 8 3 3 1 4 7 10 8 11 16 17 16 17 17 17 19 22 25 28 28 28 29
7 3 3 4 4 7 4 2 3 2 3 5 5 2 2 4 9 5 3 5 0 5 4 2 0 6 9 11 13 14 16 18 18 18 19 21 23 23 24 26 27 28 29 29
2 3 4 3 4 1 1 0 0 3 4 5 6 3 4 4 4 1 4 1 1 3 2 2 2 10 13 14 16 19 20 20 22 22 22 24 25 26 25 24 25 26 27 27
2 2 1 1 3 2 4 5 3 4 7 6 2 4 3 4 4 3 3 5 3 3 2 1 10 13 16 17 17 18 21 23 24 25 27 26 26 26 27 25 25 24 23 24
2 3 3 3 2 4 6 9 7 7 7 3 3 3 4 3 2 5 1 4 0 2 2 10 14 16 17 17 20 22 23 24 25 25 23 24 24 25 25 26 23 22 22 22
2 3 3 3 2 2 4 6 8 8 5 1 3 4 3 1 3 3 1 3 2 8 11 14 17 19 19 21 22 22 24 24 23 23 23 23 23 23 24 25 24 23 22 22
Wind_Direction
355 359 360 3 5 5 9 253 21 350 160 21 2 134 189 160 176 206 300 174 160 189 172 64 64 40 204 120 142 110 42 136 173 232 13 78 169 204 161 125 242 85 149 273
346 348 354 357 2 0 356 302 147 21 170 112 32 276 331 272 148 202 173 195 252 241 174 127 190 260 338 149 111 160 189 149 43 344 354 348 230 199 158 105 95 200 139 261
347 346 347 349 352 350 344 286 15 164 162 92 139 160 200 201 222 229 220 187 147 148 141 22 169 158 213 201 195 170 159 176 194 199 203 134 186 192 194 161 140 182 219 245
351 349 346 348 347 343 328 255 206 176 242 233 152 162 160 169 214 220 192 204 236 170 167 20 239 140 128 162 153 154 144 239 187 259 224 199 216 214 190 199 206 201 243 198
342 345 347 348 349 345 322 304 187 186 214 211 176 175 213 193 185 153 229 227 182 181 197 195 198 159 193 212 15 115 14 240 112 282 271 234 248 249 243 224 238 246 267 272
326 327 331 337 340 347 339 345 324 280 199 153 128 228 194 207 168 210 188 182 135 198 236 236 217 208 178 175 157 185 166 164 143 261 289 254 261 240 226 186 201 219 235 235
317 319 317 323 323 327 327 325 323 304 277 181 211 237 200 219 212 226 164 182 156 187 150 103 275 253 248 210 212 171 151 140 154 258 6 266 271 192 188 185 194 207 113 123
322 322 323 317 309 298 294 291 297 281 272 241 281 231 226 278 261 252 226 225 216 175 139 59 352 326 331 260 41 208 162 135 227 219 213 297 287 202 147 179 211 333 133 107
333 337 338 333 322 315 285 267 266 255 246 245 266 227 203 209 209 317 226 221 202 175 105 119 202 223 223 251 143 24 124 9 195 145 230 244 228 186 2 140 265 122 120 100
327 328 330 329 328 327 319 283 268 255 243 254 260 236 236 201 178 204 227 180 174 187 149 179 184 231 199 220 188 174 128 163 219 224 256 281 232 310 338 142 204 116 99 88
320 325 329 330 327 323 324 300 282 265 259 259 264 275 268 268 221 173 158 102 203 94 184 184 208 198 216 197 172 176 169 173 197 183 222 269 8 83 192 119 109 122 97 73
331 330 327 328 335 335 334 310 288 288 281 265 255 263 258 260 259 267 214 245 170 210 152 208 221 205 193 177 233 200 224 195 184 192 210 99 50 101 117 136 155 147 128 136
311 321 326 327 328 333 335 332 326 318 288 292 267 265 268 264 262 258 242 244 241 221 208 157 204 233 144 186 224 225 219 163 198 329 132 143 139 136 141 123 134 126 119 126
303 309 312 319 323 325 326 328 324 309 291 278 282 267 250 281 262 251 244 238 237 222 213 201 207 214 192 217 209 202 172 62 198 237 152 116 95 93 99 102 112 112 114 107
314 314 313 313 316 316 320 316 299 284 258 295 293 298 299 279 272 261 250 251 245 221 187 209 222 201 174 198 173 199 268 132 196 246 65 75 96 111 108 104 106 99 35 13
309 298 299 300 306 314 330 308 260 256 319 328 299 306 301 312 288 254 237 225 220 207 208 213 192 161 105 196 188 29 56 67 60 110 89 95 106 98 102 123 1 332 331 330
313 309 306 303 289 287 287 277 281 295 313 252 293 308 295 325 311 172 188 180 190 221 71 323 79 229 235 228 82 96 83 69 78 91 84 91 111 127 210 36 352 340 330 325
317 311 308 302 292 275 269 282 255 244 236 230 260 278 320 1 353 8 21 96 106 46 12 44 61 16 38 64 66 83 79 79 66 55 67 86 62 48 13 344 335 328 327 327
316 315 317 318 356 212 210 205 232 218 240 243 214 251 317 359 8 357 19 31 46 8 28 37 9 42 44 23 48 56 51 37 31 52 53 25 13 355 341 335 333 330 326 324
322 328 346 16 352 329 306 271 237 201 198 224 243 333 294 345 357 42 359 14 51 60 47 325 69 86 43 53 59 56 43 28 20 18 5 352 342 338 330 327 323 320 317 315
335 332 307 312 313 302 233 302 61 185 178 28 12 19 328 18 360 355 30 189 35 79 39 355 66 75 25 51 45 37 29 12 6 356 343 332 322 318 315 314 315 313 312 311
322 314 311 328 354 13 72 339 336 13 42 11 350 343 350 10 10 37 6 70 29 70 329 58 74 64 22 7 346 343 349 344 336 330 325 319 318 316 313 312 312 312 311 308
318 330 324 359 349 37 79 345 332 21 358 356 351 357 46 12 14 57 51 55 9 314 40 67 192 289 329 359 354 336 328 322 317 316 315 314 313 312 314 312 310 308 307 310
340 2 4 73 341 1 157 151 258 1 358 359 3 40 42 15 45 24 74 27 51 64 69 85 258 354 349 340 332 327 326 327 326 326 324 322 321 321 322 321 319 318 316 317
25 17 5 20 329 350 19 15 62 40 18 6 29 44 22 6 62 33 60 29 49 35 58 235 357 342 334 333 335 334 331 330 327 325 325 324 323 322 321 322 321 320 316 315
55 49 45 3 11 35 52 53 53 26 358 6 41 74 52 10 101 49 79 96 159 264 257 341 332 337 342 339 334 330 327 324 323 323 322 321 322 322 320 320 322 321 320 319
54 46 38 28 45 32 37 35 21 7 0 62 76 54 202 58 46 35 217 144 223 334 333 340 345 339 335 332 331 330 328 326 325 324 322 321 322 321 323 327 329 326 322 322